sat.trackr.live / text

‹ back to catalog

STARLINK-34505

NORAD 64490 · 2025-133U

PAYLOAD ACTIVE UNKNOWN

§ Identity

Operator
Country
US
Launch date
2025-06-23
Launch site
AFETR
Launch vehicle
Mass (kg)
RCS (m²)

Purposes: comms

External: N2YO · Heavens-Above · Gunter

§ Orbital elements

Epoch: 2026-09-20T13:49:26.773248Z

Period
93.85 min
Inclination
53.1579°
Eccentricity
0.0001011
Mean motion
15.34407414 rev/d
Perigee alt
462.0 km
Apogee alt
463.4 km
Semi-major
6,840.8 km
B*
5.4360e-4
RAAN
291.0534°
Arg perigee
80.9498°
Mean anomaly
279.1619°
Rev number
7,101

§ Raw data

STARLINK-345051 64490U 25133U   26263.57600432  .00018039  00000+0  54360-3 0  99942 64490  53.1579 291.0534 0001011  80.9498 279.1619 15.34407414 71017

JSON: /api/v1/satellites/64490 · /tle

For live sub-satellite position, see the globe view (requires WebGL).

§ Visibility from observer

Set your observer location to see the next 7 days of passes ≥ 10°. The values pass through the URL so the page stays shareable.

No JS? Fill the form by hand. The geolocation button needs JavaScript.